DELTA 1 DEB, 37638

Orbit data source: Space-Track

DELTA 1 DEB, 37638 is space debris in SSO originally from a launch on Sun, 05 Mar 1978 UTC launched from the Air Force Western Test Range (AFWTR). Debris objects in space refer to the collection of defunct objects orbiting the Earth. Examples of debris include non-operational satellites, rocket bodies, and fragments generated from explosions, collisions, or faulty payload assembly.

Loading next visibility...
Identifier
37638, 1978-026HZ
Orbit
SSO
Country
Flag of USUS
Related business
Manufacturer
Unknown
Mission
Spacecraft
Bus & Motor
Unknown
Mass
Unknown
Launch date (UTC)
1978-03-05 (48 years ago)
Launch vehicle
Unknown
Launch site
Air Force Western Test Range (AFWTR)
Object type
Payload
Rocket body
Debris
Shape & HBR
Unknown shape, 0.1 m
Radar Cross Section
Small (<0.1 m²)

Expand to show TLE details & history
Last TLE update: 4 days ago

TLE from 4 days ago
0 DELTA 1 DEB
1 37638U 78026HZ  26169.46194822  .00000773  00000-0  42054-3 0  9995
2 37638  98.8432  70.9765 0057308  82.3636 278.4041 14.14342353598848
Epoch: 2026-06-18T11:05Z
TLE epoch observation values (Epoch: 2026-06-18T11:05:12.326Z)
Latitude
0.00002°
Longitude
-2.0298°
Altitude
841.635 km
Speed
7.435 km/s
True Right ascension
04h 43m 54s
True Declination
0° 00' 00"
Sunlit
Object was in daylight at epoch
Visualization orbit readout
Latitude
Unknown
Longitude
Unknown
Altitude
Unknown
Speed
Unknown
Apparent Right ascension
Unknown
Apparent Declination
Unknown
Sunlit
N/A
Visualization observer readout
Local Sidereal Time
08:10:59
Azimuth
Unknown
Elevation
Unknown
Doppler factor
Unknown
Orbital elements
Apogee altitude
883.098 km
Perigee altitude
800.347 km
Semi-major axis
7,219.86 km
Eccentricity
0.00573
Inclination
98.8432°
RAAN
70.9765°
Arg. of periapsis
82.3636°
True anomaly
277.75378°
Mean anomaly
278.4041°
Eccentric anomaly
278.07901°
Mean motion
3.53794 °/min
Orbital period
101.75 mins
BSTAR
0.00042054
Loading maneuver chart data...
Computing Atmospheric mass density...

Documentation

Showing up to 5 results
|